CZ-3C DEB, 40858

Orbit data source: Space-Track

CZ-3C DEB, 40858 is space debris in HEO originally from a launch on Fri, 24 Feb 2012 UTC launched from the Xichang Space Center, China (XSC). Debris objects in space refer to the collection of defunct objects orbiting the Earth. Examples of debris include non-operational satellites, rocket bodies, and fragments generated from explosions, collisions, or faulty payload assembly.

Loading next visibility...
Identifier
40858, 2012-008Y
Orbit
HEO
Country
Flag of CNCN / PRC
Related business
Manufacturer
CALT
Mission
Spacecraft
Bus & Motor
Unknown
Mass
Unknown
Launch date (UTC)
2012-02-24 (14 years ago)
Launch vehicle
Unknown
Launch site
Xichang Space Center, China (XSC)
Object type
Payload
Rocket body
Debris
Shape & HBR
Unknown shape, 0.1 m
Radar Cross Section
Medium (>0.1 m² and <1 m²)

Expand to show TLE details & history
Last TLE update: 22 hours ago

TLE from 22 hours ago
0 CZ-3C DEB
1 40858U 12008Y   26119.53907977 -.00000051  00000-0  11655-2 0  9999
2 40858  18.1128  87.1156 7301736 154.7270 275.4186  2.12256524 88186
Epoch: 2026-04-29T12:56Z
TLE epoch observation values (Epoch: 2026-04-29T12:56:16.492Z)
Latitude
-0.00003°
Longitude
35.57942°
Altitude
28,687.065 km
Speed
2.674 km/s
True Right ascension
05h 48m 35s
True Declination
0° 00' 00"
Sunlit
Object was in daylight at epoch
Visualization orbit readout
Latitude
Unknown
Longitude
Unknown
Altitude
Unknown
Speed
Unknown
Apparent Right ascension
Unknown
Apparent Declination
Unknown
Sunlit
N/A
Visualization observer readout
Local Sidereal Time
18:58:34
Azimuth
Unknown
Elevation
Unknown
Doppler factor
Unknown
Orbital elements
Apogee altitude
37,880.307 km
Perigee altitude
524.116 km
Semi-major axis
25,580.349 km
Eccentricity
0.73017
Inclination
18.1128°
RAAN
87.1156°
Arg. of periapsis
154.727°
True anomaly
205.39145°
Mean anomaly
275.4186°
Eccentric anomaly
239.40635°
Mean motion
0.5305 °/min
Orbital period
678.61 mins
BSTAR
0.0011655
Loading maneuver chart data...
Computing Atmospheric mass density...
Loading historical data...
Loading historical data...
Loading historical data...
Loading historical data...
Loading historical data...
Loading historical data...
Loading historical data...

Documentation

Showing up to 5 results
|